Location: Palomar Mountain Lodge
(33.3110°N, 116.8495°W)
Time: 23:13:04
(UTC-08:00)

CZ-2C R/B - Pass Details

Date: 12 July 2018
Orbit: 784 x 871 km, 98.3° (Epoch: 09 December)

Event Time Altitude Azimuth Distance (km) Brightness Sun altitude
Rises 23:43:46 0° 1° (N) 3,298 6.7 -32.4°
Reaches altitude 10° 23:46:17 10° 352° (N) 2,356 5.8 -32.6°
Enters shadow 23:50:41 33° 294° (WNW) 1,291 3.9 -32.9°
